Silver Bay, MN

12:27 PM CDT on March 28, 2017 (GMT -0500)
Silver Bay Municipal

Weather History for KBFW - August, 2014

Change the Weather History Date:

Sunday, August 17, 2014

  Actual Average Record
Temperature  
Mean Temperature 54 °F -  
Max Temperature 57 °F 71 °F 89 °F (2008)
Min Temperature 51 °F 48 °F 33 °F (2012)
Degree Days  
Heating Degree Days 11    
Growing Degree Days 4 (Base 50)    
Moisture  
Dew Point 54 °F    
Average Humidity 97    
Maximum Humidity 100    
Minimum Humidity 94    
Precipitation  
Precipitation 0.10 in - - ()
Sea Level Pressure  
Sea Level Pressure 30.04 in    
Wind  
Wind Speed 6 mph (ENE)    
Max Wind Speed 12 mph    
Max Gust Speed 17 mph    
Visibility 10 miles    
Events Rain    
Averages and records for this station are not official NWS values.
T = Trace of Precipitation, MM = Missing Value Source: NWS Daily Summary

Daily Weather History Graph

Daily Weather History Graph

Search for Another Location

Airport or City:

Trip Planner

Search our weather history database for the weather conditions in past years. The results will help you decide how hot, cold, wet, or windy it might be!

Date:

Astronomy

Aug. 17, 2014 Rise Set
Actual Time 6:04 AM CDT 8:13 PM CDT
Civil Twilight 5:31 AM CDT 8:46 PM CDT
Nautical Twilight 4:50 AM CDT 9:27 PM CDT
Astronomical Twilight 4:03 AM CDT 10:13 PM CDT
Moon No Moon Rise 2:23 PM CDT (8/17)
Length of Visible Light 15h 15m
Length of Day
14h 08m
Waning Gibbous, 48% of the Moon is Illuminated
Aug 17
Waning Gibbous
Aug 25
New
Sep 2
First Quarter
Sep 8
Full
Sep 15
Last Quarter

Hourly Weather History & Observations

Time (CDT) Temp. Dew Point Humidity Pressure Visibility Wind Dir Wind Speed Gust Speed Precip Events Conditions
12:14 AM 57.2 °F 57.2 °F 100% 30.04 in 10.0 mi East 6.9 mph - N/A   Scattered Clouds
12:34 AM 57.2 °F 55.4 °F 94% 30.04 in 10.0 mi East 6.9 mph - N/A   Scattered Clouds
12:54 AM 57.2 °F 55.4 °F 94% 30.04 in 10.0 mi ENE 6.9 mph - N/A   Scattered Clouds
1:14 AM 57.2 °F 55.4 °F 94% 30.04 in 10.0 mi ENE 6.9 mph - N/A   Scattered Clouds
1:34 AM 57.2 °F 55.4 °F 94% 30.04 in 10.0 mi East 5.8 mph - N/A   Clear
1:54 AM 55.4 °F 55.4 °F 100% 30.05 in 10.0 mi ENE 5.8 mph - N/A   Clear
2:14 AM 55.4 °F 55.4 °F 100% 30.05 in 7.0 mi East 5.8 mph - N/A   Clear
2:34 AM 55.4 °F 55.4 °F 100% 30.05 in 10.0 mi ENE 4.6 mph - N/A   Scattered Clouds
2:54 AM 55.4 °F 55.4 °F 100% 30.05 in 10.0 mi NE 3.5 mph - N/A   Scattered Clouds
3:14 AM 55.4 °F 55.4 °F 100% 30.05 in 10.0 mi ENE 9.2 mph - N/A   Scattered Clouds
3:34 AM 55.4 °F 55.4 °F 100% 30.06 in 10.0 mi East 4.6 mph - N/A   Mostly Cloudy
3:54 AM 55.4 °F 55.4 °F 100% 30.07 in 10.0 mi ENE 6.9 mph - N/A   Mostly Cloudy
4:14 AM 55.4 °F 53.6 °F 94% 30.06 in 10.0 mi ENE 6.9 mph - N/A   Mostly Cloudy
4:34 AM 55.4 °F 53.6 °F 94% 30.06 in 10.0 mi NE 5.8 mph - N/A   Scattered Clouds
4:54 AM 55.4 °F 53.6 °F 94% 30.06 in 10.0 mi NE 6.9 mph - N/A   Scattered Clouds
5:14 AM 53.6 °F 53.6 °F 100% 30.06 in 10.0 mi NE 6.9 mph - N/A   Scattered Clouds
5:34 AM 53.6 °F 53.6 °F 100% 30.06 in 10.0 mi NE 4.6 mph - N/A   Scattered Clouds
5:54 AM 53.6 °F 51.8 °F 94% 30.06 in 10.0 mi NNE 4.6 mph - N/A   Scattered Clouds
6:14 AM 53.6 °F 51.8 °F 94% 30.06 in 10.0 mi NNE 3.5 mph - N/A   Scattered Clouds
6:34 AM 53.6 °F 51.8 °F 94% 30.07 in 10.0 mi Calm Calm - N/A   Mostly Cloudy
6:54 AM 53.6 °F 51.8 °F 94% 30.08 in 10.0 mi Calm Calm - N/A   Scattered Clouds
7:14 AM 55.4 °F 53.6 °F 94% 30.08 in 10.0 mi East 3.5 mph - N/A   Scattered Clouds
7:34 AM 55.4 °F 53.6 °F 94% 30.08 in 10.0 mi East 5.8 mph - N/A   Scattered Clouds
7:54 AM 55.4 °F 53.6 °F 94% 30.08 in 10.0 mi ENE 6.9 mph - N/A   Scattered Clouds
8:14 AM 55.4 °F 53.6 °F 94% 30.08 in 10.0 mi ENE 5.8 mph - N/A   Scattered Clouds
8:34 AM 55.4 °F 53.6 °F 94% 30.08 in 10.0 mi ENE 5.8 mph - N/A   Scattered Clouds
8:54 AM 55.4 °F 53.6 °F 94% 30.07 in 10.0 mi East 8.1 mph - N/A   Clear
9:14 AM 55.4 °F 53.6 °F 94% 30.08 in 10.0 mi East 8.1 mph - N/A   Clear
9:34 AM 55.4 °F 53.6 °F 94% 30.08 in 10.0 mi ENE 8.1 mph - N/A   Clear
9:54 AM 55.4 °F 53.6 °F 94% 30.08 in 10.0 mi East 6.9 mph - N/A   Clear
10:14 AM 55.4 °F 53.6 °F 94% 30.08 in 10.0 mi ENE 10.4 mph - N/A   Clear
10:34 AM 55.4 °F 53.6 °F 94% 30.08 in 10.0 mi ENE 6.9 mph - N/A   Clear
10:54 AM 55.4 °F 53.6 °F 94% 30.09 in 10.0 mi East 9.2 mph - N/A   Clear
11:14 AM 55.4 °F 53.6 °F 94% 30.09 in 10.0 mi East 8.1 mph - N/A   Clear
11:34 AM 55.4 °F 53.6 °F 94% 30.09 in 10.0 mi East 10.4 mph - N/A   Clear
11:54 AM 55.4 °F 53.6 °F 94% 30.09 in 10.0 mi NE 11.5 mph 16.1 mph N/A   Clear
12:14 PM 55.4 °F 53.6 °F 94% 30.09 in 10.0 mi NE 10.4 mph - N/A   Scattered Clouds
12:34 PM 55.4 °F 53.6 °F 94% 30.08 in 10.0 mi ENE 8.1 mph - N/A   Scattered Clouds
12:54 PM 55.4 °F 53.6 °F 94% 30.07 in 10.0 mi ENE 9.2 mph 16.1 mph N/A   Scattered Clouds
1:14 PM 55.4 °F 53.6 °F 94% 30.07 in 10.0 mi ENE 10.4 mph 16.1 mph N/A   Scattered Clouds
1:34 PM 55.4 °F 53.6 °F 94% 30.07 in 10.0 mi NE 9.2 mph - N/A   Mostly Cloudy
1:54 PM 55.4 °F 53.6 °F 94% 30.07 in 10.0 mi East 11.5 mph 17.3 mph N/A   Scattered Clouds
2:14 PM 55.4 °F 53.6 °F 94% 30.07 in 10.0 mi East 8.1 mph - N/A   Scattered Clouds
2:34 PM 55.4 °F 53.6 °F 94% 30.06 in 10.0 mi ENE 8.1 mph - N/A   Mostly Cloudy
2:54 PM 55.4 °F 53.6 °F 94% 30.05 in 10.0 mi ENE 8.1 mph - N/A   Overcast
3:14 PM 55.4 °F 53.6 °F 94% 30.05 in 10.0 mi NE 9.2 mph - N/A   Scattered Clouds
3:34 PM 55.4 °F 53.6 °F 94% 30.04 in 10.0 mi ENE 10.4 mph - N/A   Scattered Clouds
3:54 PM 55.4 °F 53.6 °F 94% 30.03 in 10.0 mi NE 8.1 mph - N/A   Scattered Clouds
4:14 PM 55.4 °F 53.6 °F 94% 30.03 in 10.0 mi ENE 11.5 mph - N/A   Clear
4:34 PM 55.4 °F 53.6 °F 94% 30.03 in 10.0 mi ENE 9.2 mph - N/A   Clear
5:14 PM 53.6 °F 53.6 °F 100% 30.04 in 10.0 mi NE 4.6 mph - N/A   Clear
5:34 PM 53.6 °F 53.6 °F 100% 30.03 in 10.0 mi NE 5.8 mph - N/A   Clear
5:54 PM 53.6 °F 53.6 °F 100% 30.01 in 10.0 mi NE 6.9 mph - N/A   Clear
6:14 PM 53.6 °F 53.6 °F 100% 30.01 in 10.0 mi NE 3.5 mph - N/A Rain Light Rain
6:34 PM 51.8 °F 51.8 °F 100% 29.99 in 10.0 mi NE 4.6 mph - 0.05 in Rain Rain
6:54 PM 51.8 °F 51.8 °F 100% 29.99 in 10.0 mi NNE 3.5 mph - 0.02 in Rain Rain
7:14 PM 51.8 °F 51.8 °F 100% 29.97 in 10.0 mi NE 9.2 mph - 0.05 in Rain Light Rain
7:34 PM 51.8 °F 51.8 °F 100% 29.96 in 10.0 mi NE 5.8 mph - 0.05 in   Light Drizzle
7:54 PM 51.8 °F 51.8 °F 100% 29.96 in 10.0 mi NNE 6.9 mph - N/A   Scattered Clouds
8:14 PM 51.8 °F 51.8 °F 100% 29.96 in 10.0 mi NNE 4.6 mph - N/A   Scattered Clouds
8:34 PM 51.8 °F 51.8 °F 100% 29.97 in 10.0 mi NE 4.6 mph - N/A   Mostly Cloudy
8:54 PM 51.8 °F 51.8 °F 100% 29.97 in 10.0 mi NNE 4.6 mph - N/A   Light Drizzle
9:14 PM 51.8 °F 51.8 °F 100% 29.97 in 10.0 mi NE 4.6 mph - N/A   Overcast
9:34 PM 51.8 °F 51.8 °F 100% 29.97 in 10.0 mi NE 4.6 mph - N/A   Overcast
9:54 PM 51.8 °F 51.8 °F 100% 29.97 in 10.0 mi NNE 4.6 mph - N/A   Overcast
10:14 PM 53.6 °F 53.6 °F 100% 29.96 in 10.0 mi NE 5.8 mph - N/A   Overcast
10:34 PM 53.6 °F 53.6 °F 100% 29.95 in 10.0 mi NE 4.6 mph - N/A Rain Light Rain
10:54 PM 53.6 °F 53.6 °F 100% 29.95 in 10.0 mi NE 3.5 mph - N/A   Overcast
11:14 PM 53.6 °F 53.6 °F 100% 29.95 in 10.0 mi NNE 3.5 mph - N/A   Mostly Cloudy
11:34 PM 53.6 °F 53.6 °F 100% 29.95 in 10.0 mi NE 3.5 mph - N/A   Overcast
11:54 PM 53.6 °F 53.6 °F 100% 29.93 in 10.0 mi NE 4.6 mph - N/A   Mostly Cloudy